Regional Weather Roundup
Issued by NWS

Home | Current Version | Previous Version | Graphics & Text | Print | Product List | Glossary On
Versions: 1 2 3 4 5 6 7 8 9 10 11 12 13 14 15 16 17 18 19 20 21 22 23 24 25 26 27 28 29 30 31 32 33 34 35 36 37 38 39 40 41 42 43 44 45 46 47 48 49 50
489
ASUS43 KFSD 070210
RWRSD

WEATHER ROUNDUP FOR SOUTH DAKOTA
NATIONAL WEATHER SERVICE SIOUX FALLS SD
800 PM CST SAT FEB 06 2016

NOTE: "FAIR" INDICATES FEW OR NO CLOUDS BELOW 12,000 FEET WITH NO
SIGNIFICANT WEATHER AND/OR OBSTRUCTIONS TO VISIBILITY.


SDZ001>005-009-010-012>017-070300-
NORTHWEST AND NORTH CENTRAL SOUTH DAKOTA

CITY           SKY/WX    TMP DP  RH WIND       PRES   REMARKS
BUFFALO          N/A     40  22  48 NW32G46   29.85R
FAITH            N/A     39  22  50 W22G31    29.88R
MOBRIDGE       CLEAR     42  27  55 W10       29.75S
$$

SDZ012>016-024>037-041>051-057-063-072>074-070300-
SOUTHWEST AND SOUTH CENTRAL SOUTH DAKOTA

CITY           SKY/WX    TMP DP  RH WIND       PRES   REMARKS
RAPID CTY ARPT CLOUDY    40  24  53 NW25G39   29.97R
PIERRE         PTCLDY    43  28  55 W12       29.85F
CUSTER         CLOUDY    34  17  50 NW24G37   29.97R WCI  21
ELLSWORTH AFB  CLOUDY    41  23  48 NW26G38   29.96R
PHILIP         PTCLDY    42  27  55 NW22G30   29.91F
PINE RIDGE     CLOUDY    39  26  59 N10       30.00R
SPEARFISH      FAIR      39  19  45 W16G31    29.99S
WINNER         CLOUDY    42  29  59 NW23      29.90R
$$

SDZ004>011-016>023-039-040-070300-
NORTHEAST SOUTH DAKOTA

CITY           SKY/WX    TMP DP  RH WIND       PRES   REMARKS
ABERDEEN       MOCLDY    35  30  82 S10       29.72F WCI  27
WATERTOWN      CLOUDY    34  28  79 S7        29.74F WCI  28
BROOKINGS      CLOUDY    31  28  89 S6        29.81S WCI  25
SISSETON         N/A     38  32  79 W14       29.70F
$$

SDZ017-020-022-023-036>040-048>070-070300-
SOUTHEAST SOUTH DAKOTA

CITY           SKY/WX    TMP DP  RH WIND       PRES   REMARKS
SIOUX FALLS    CLOUDY    33  26  75 SW9       29.83F WCI  25
HURON          CLOUDY    39  31  72 W8        29.80S
CHAMBERLAIN    CLOUDY    39  31  71 NW5       29.88R
MITCHELL       CLOUDY    42  31  64 W14       29.84R
YANKTON        CLOUDY    39  27  60 SW13      29.84F
$$

ABBREVIATIONS USED IN REMARKS
   TC - TEMPERATURE IN CELSIUS
  WCI - WIND CHILL INDEX
   HX - HEAT INDEX
  VSB - VISIBILITY





USA.gov is the U.S. government's official web portal to all federal, state and local government web resources and services.